Regional Weather Roundup
Issued by NWS Upton, NY

Current Version | Previous Version | Graphics & Text | Print | Product List | Glossary Off
Versions: 1 2 3 4 5 6 7 8 9 10 11 12 13 14 15 16 17 18 19 20 21 22 23 24 25 26 27 28 29 30 31 32 33 34 35 36 37 38 39 40 41 42 43 44 45 46 47 48 49 50

000
ASUS41 KOKX 301005
RWROKX

REGIONAL WEATHER ROUNDUP
NATIONAL WEATHER SERVICE NEW YORK NY
600 AM EDT WED JUL 30 2014

NOTE: "FAIR" INDICATES FEW OR NO CLOUDS BELOW 12,000 FEET WITH NO
SIGNIFICANT WEATHER AND/OR OBSTRUCTIONS TO VISIBILITY.

NYZ071-072-176-178-NJZ106-104-301100-
NEW YORK CITY METRO AREA


CITY           SKY/WX    TMP DP  RH WIND       PRES   REMARKS
CENTRAL PARK   CLEAR     63  53  70 VRB7      30.02R
LAGUARDIA APRT MOCLDY    65  54  67 NW9       29.99R
KENNEDY INTL   MOCLDY    64  53  67 N6        30.00R
NEWARK/LIBERTY PTCLDY    64  52  64 NW7       30.00R
BRNX BOT. GARD   N/A     63  52  67 NW1       30.01R
TETERBORO      PTCLDY    63  53  70 CALM      29.99R
$$

NYZ177-179-078>081-301100-
LONG ISLAND NEW YORK

CITY           SKY/WX    TMP DP  RH WIND       PRES   REMARKS
FARMINGDALE    PTCLDY    63  55  75 CALM      29.99R
ISLIP          PTCLDY    63  55  75 CALM      29.97R
SHIRLEY        MOCLDY    57  55  93 CALM      29.99R
WESTHAMPTON    CLOUDY    57  53  86 CALM      30.00R
MONTAUK POINT    N/A     66  58  75 N3        30.00R
$$

NYZ052-065-067-301100-
HUDSON VALLEY

CITY           SKY/WX    TMP DP  RH WIND       PRES   REMARKS
WHITE PLAINS   CLEAR     56  53  90 NW5       29.99R
NEWBURGH       NOT AVBL
MONTGOMERY     PTCLDY    56  54  93 CALM      30.01R
POUGHKEEPSIE   CLOUDY    60  58  92 CALM      29.99R
ALBANY         CLOUDY    60  54  80 CALM      30.00R
$$

NJZ001-105-106-008-010-013-015-019>022-104-301100-
NEW JERSEY

CITY           SKY/WX    TMP DP  RH WIND       PRES   REMARKS
NEWARK/LIBERTY PTCLDY    64  52  64 NW7       30.00R
TETERBORO      PTCLDY    63  53  70 CALM      29.99R
CALDWELL       CLEAR     55  52  89 CALM      30.01R
MORRISTOWN     CLEAR     54  50  87 CALM      30.01R FOG
SOMERVILLE     CLEAR     52  50  93 CALM      30.00R
LINDEN         FAIR      62  54  75 NW5       30.02R
SUSSEX         CLEAR     53  50  89 CALM      30.02R
ANDOVER          N/A     50  49  96 CALM      30.03R
TRENTON        PTCLDY    58  54  86 NW3       30.01R
MILLVILLE      CLEAR     54  53  97 MISG      30.02R
ATLANTIC CITY  CLEAR     60  56  86 N3        30.01R
WRIGHTSTOWN    MOCLDY    59  55  88 CALM      30.00R
TOMS RIVER     MOCLDY    57  54  88 CALM      30.01R
BELMAR         CLOUDY    61  52  72 NW3       30.00R
$$

PAZ047>061-062-071-301100-
EASTERN PENNSYLVANIA

CITY           SKY/WX    TMP DP  RH WIND       PRES   REMARKS
PHILADELPHIA   PTCLDY    62  51  67 N5        30.02R
ALLENTOWN      CLEAR     53  50  89 CALM      30.02R
SCRANTON       CLEAR     52  49  89 E6        30.02R
$$

CTZ002-004>006-009-010-012-RIZ004-006-007-MAZ004-011-015-301100-
SOUTHERN NEW ENGLAND
 IN CT

CITY           SKY/WX    TMP DP  RH WIND       PRES   REMARKS
BRADLEY INTL   MOCLDY    60  56  86 CALM      29.98S
HARTFORD       CLEAR     60  56  86 CALM      29.99R
DANBURY        PTCLDY    54  51  90 CALM      30.01R
WTRBRY/OXFORD  MOCLDY    55  48  76 CALM      30.01S
BRIDGEPORT     PTCLDY    61  56  83 CALM      29.99R
MERIDEN        CLEAR     56  54  93 CALM      29.99R
NEW HAVEN      MOCLDY    59  55  87 CALM      29.99R
CHESTER        FAIR      57  54  88 CALM      30.00R
GROTON         PTCLDY    56  56 100 N3        29.98R
WILLIMANTIC    FOG       56  54  93 CALM      30.00R VSB 1/4

 IN RI

CITY           SKY/WX    TMP DP  RH WIND       PRES   REMARKS
PROVIDENCE     PTCLDY    60  56  86 CALM      29.99R
BLOCK ISLAND   CLOUDY    63  57  82 CALM      29.99R
WESTERLY       CLEAR     57  54  89 CALM      29.99R

 IN MA

CITY           SKY/WX    TMP DP  RH WIND       PRES   REMARKS
BOSTON         PTCLDY    64  56  75 CALM      29.97S
WORCESTER      CLOUDY    60  52  74 NW5       30.00R
WESTFIELD      CLOUDY    57  55  93 CALM      29.99R
PROVINCETOWN   CLEAR     55  54  94 CALM      29.99R
NANTUCKET      CLEAR     60  58  92 S3        29.99R FOG
$$

ANZ330-335-338-340-345-350-353-355-301100-
COASTAL MARINE OBSERVATIONS


STATION/POSITION TIME  SKY/WX   TEMP    WIND        PRES    VSBY  WAVE
                                AIR SEA DIR/SP/G                  HT/PER
                 (UTC)          (F)     (DEG/KT/KT) (MB)    (MI)  (FT/S)
NY HARB ENTRANCE NOT AVBL
4S FIRE IS       NOT AVBL
23SW MTP         1000            67 69              1014.7          3/ 8
HUDSON CANYON    1000            71 74  270/  2/  2 1015.2          3/ 7
EXECUTION ROCKS  1000            65 69  310/  6/  8   N/A
WESTERN LI SOUND 1000            64     360/  6/  8   N/A           0
CENTRAL LI SOUND 0900            67 70  360/  6/  8   N/A           0
EASTERN LI SOUND 0900            65 67  360/  4/  4   N/A
ROBBINS REEF     1000            65     330/ 11/ 13   N/A
$$


>>>>>>>>>>>>>>>>>>>>>>>>>>>> KEY <<<<<<<<<<<<<<<<<<<<<<<<<<<
>                                                          <
>     SKY/WX - SKY CONDITION/PRESENT WEATHER               <
>     TMP    - TEMPERATURE IN FAHRENHEIT                   <
>     DP     - DEWPOINT IN FAHRENHEIT                      <
>     RH     - RELATIVE HUMIDITY IN PERCENT                <
>     WIND   - DIRECTION AND SPEED IN MPH                  <
>     PRES   - MEAN SEA LEVEL PRESSURE IN INCHES OF HG     <
>     WCI    - WIND CHILL INDEX                            <
>     VSB    - VISIBILITY IN MILES                         <
>     HX     - HEAT INDEX                                  <
>     TC     - TEMPERATURE IN CELSIUS                      <
>     VRB    - VARIABLE WIND DIRECTION                     <
>                                                          <
>>>>>>>>>>>>>>>>>>>>>>>>>>>> KEY <<<<<<<<<<<<<<<<<<<<<<<<<<<





USA.gov is the U.S. government's official web portal to all federal, state and local government web resources and services.